Regional Weather Roundup
Issued by NWS

Home | Current Version | Previous Version | Graphics & Text | Print | Product List | Glossary On
Versions: 1 2 3 4 5 6 7 8 9 10 11 12 13 14 15 16 17 18 19 20 21 22 23 24 25 26 27 28 29 30 31 32 33 34 35 36 37 38 39 40 41 42 43 44 45 46 47 48 49 50
000
ASUS43 KLOT 310200
RWRIL

ILLINOIS REGIONAL WEATHER ROUNDUP
NATIONAL WEATHER SERVICE CHICAGO/ROMEOVILLE IL
900 PM CDT SAT AUG 30 2014

NOTE: "FAIR" INDICATES FEW OR NO CLOUDS BELOW 12,000 FEET WITH NO
SIGNIFICANT WEATHER AND/OR OBSTRUCTIONS TO VISIBILITY.

* THESE STATIONS ARE NOT UNDER NWS QUALITY CONTROL. THEY ALSO MAY NOT
  REPORT WEATHER SUCH AS PRECIPITATION OR FOG.

ILZ001-002-007-009-015-016-024-310300-
NORTHWEST ILLINOIS

CITY           SKY/WX    TMP DP  RH WIND       PRES   REMARKS
MOLINE         CLEAR     69  67  93 S3        29.89R
STERLING*      CLEAR     68  64  88 CALM      29.90R
$$

ILZ003-004-008-010-011-017-018-310300-
NORTH CENTRAL ILLINOIS

CITY           SKY/WX    TMP DP  RH WIND       PRES   REMARKS
ROCKFORD       CLEAR     70  65  84 S6        29.90R
$$

ILZ005-006-012>014-019>023-310300-
NORTHEAST ILLINOIS

CITY           SKY/WX    TMP DP  RH WIND       PRES   REMARKS
CHICAGO-OHARE  PTCLDY    76  63  64 SW5       29.89R
CHICAGO-MIDWAY PTCLDY    78  68  71 W5        29.89R HX  80
AURORA         CLEAR     71  66  84 W5        29.91R
WAUKEGAN       CLEAR     73  65  75 SW3       29.88R
DUPAGE AIRPORT CLEAR     73  66  78 SW5       29.90R
WHEELING       CLEAR     77  65  66 CALM      29.91R
NORTHERLY ISL    N/A     79  64  60 W7          N/A  HX  81
$$

LMZ740>746-310300-
SOUTHERN LAKE MICHIGAN

STATION/POSITION SKY/WX   TEMP    WIND        PRES    VSBY  WAVE
                          AIR SEA DIR/SP/G                  HT/PER
                          (F)     (DEG/KT/KT) (MB)    (MI)  (FT/S)
SOUTHERN BUOY              72 69  240/ 10/ 10 1010.7R         2/ 4
WAUKEGAN HARBOR            76     230/  6/  8   N/A
HARRISON CRIB              79     260/ 12/ 14   N/A
BURNHAM HARBOR             79     240/  6/ 12   N/A
CALUMET HARBOR             78     210/  4/  6 1011.1R
MICHIGAN CITY              73     170/ 12/ 16   N/A
MICHIGAN CITY 6N           72 72  200/ 12/ 14   N/A           2/ 3
ST. JOSEPH                 73 71  220/ 10/ 12   N/A           2/ 4
$$

ILZ025>027-034>036-040-047-049-050-058-095>099-310300-
WEST-CENTRAL ILLINOIS

CITY           SKY/WX    TMP DP  RH WIND       PRES   REMARKS
QUINCY         PTCLDY    76  70  82 SE3       29.90R
MACOMB*        CLEAR     71  69  95 CALM      29.92S
$$

ILZ028>032-037-038-041>044-048-051>054-059>061-310300-
CENTRAL ILLINOIS

CITY           SKY/WX    TMP DP  RH WIND       PRES   REMARKS
PONTIAC        MOCLDY    77  73  88 CALM      29.91R
DECATUR        CLOUDY    77  72  84 S9        29.94R
PEORIA         PTCLDY    77  70  79 CALM      29.91R
SPRINGFIELD    MOCLDY    78  71  79 S5        29.92R HX  80
TAYLORVILLE    NOT AVBL
$$

ILZ033-039-045-046-055>057-062-063-310300-
EAST-CENTRAL ILLINOIS

CITY           SKY/WX    TMP DP  RH WIND       PRES   REMARKS
CHAMPAIGN      MOCLDY    75  72  90 S7        29.95R
MATTOON        CLOUDY    74  71  91 S12       29.95R
$$

ILZ079-100>102-310300-
SOUTHWEST ILLINOIS

CITY           SKY/WX    TMP DP  RH WIND       PRES   REMARKS
BELLEVILLE     CLOUDY    77  75  94 E7        29.92R
CAHOKIA*       LGT RAIN  77  73  87 VRB3      29.92R
$$

ILZ064>066-069>071-074>076-080>082-084>086-088>090-092>094-310300-
SOUTH-CENTRAL ILLINOIS

CITY           SKY/WX    TMP DP  RH WIND       PRES   REMARKS
CARBONDALE     CLOUDY    74  69  85 S15       29.97R
MT. VERNON     CLOUDY    73  66  78 S7        29.98R
$$

ILZ067-068-072-073-078-083-087-091-310300-
SOUTHEAST ILLINOIS

CITY           SKY/WX    TMP DP  RH WIND       PRES   REMARKS
LAWRENCEVILLE  CLOUDY    72  70  93 S9        29.99R
ROBINSON*      CLOUDY    73  72  95 S6        29.99R
$$

ABBREVIATIONS USED IN REMARKS
   TC - TEMPERATURE IN CELSIUS
  WCI - WIND CHILL INDEX
   HX - HEAT INDEX
  VSB - VISIBILITY
$$



USA.gov is the U.S. government's official web portal to all federal, state and local government web resources and services.